User: anonymous   Login
Location: Unspecified
(0.0000°N, 0.0000°E)
Time: 16:09:13
(UTC+00:00)
Language:

GRACE-FO 2 - Orbit

View from above orbital plane
View from above orbital plane
View from above satellite
View from above satellite

Ground track
Ground track

The orbit data is extracted from the following two-line orbital elements,

1 43477U 18047B   21268.15634258 +.00000315  00000-0 +12830-4 0    08
2 43477  88.9780  74.5669 0014142 286.4150 151.5896 15.24361010186005
Epoch (UTC): 25 September 2021 03:45:07
Eccentricity: 0.0014142
inclination: 88.9780°
perigee height: 483 km
apogee height: 502 km
right ascension of ascending node: 74.5669°
argument of perigee: 286.4150°
revolutions per day: 15.24361010
mean anomaly at epoch: 151.5896°
orbit number at epoch: 18600

The dashed part of the orbit path shows where the satellite is in the earth's shadow,  

DLR